| time (UTC) | temp C | wind direction | speed KPH | gust KPH | rain 1hr cm | rain 24hr cm | rain mn cm | humidity % | barometer mb |
| 20260506093321 | 19 | 158 | 6.4 | 6.4 | 0.00 | 0.00 | 0.00 | 48 | 1004.8 |
| 20260506085351 | 18 | 112 | 1.6 | 1.6 | 0.00 | 0.00 | 0.00 | 49 | 1005.0 |
| 20260506082321 | 18 | 158 | 8.0 | 8.0 | 0.00 | 0.00 | 0.00 | 48 | 1004.8 |
| 20260506070321 | 16 | 338 | 3.2 | 3.2 | 0.00 | 0.00 | 0.00 | 53 | 1004.8 |
| 20260506062322 | 17 | 225 | 3.2 | 3.2 | 0.00 | 0.00 | 0.00 | 50 | 1004.7 |
| 20260506050351 | 14 | 158 | 0.0 | 0.0 | 0.00 | 0.00 | 0.00 | 54 | 1004.7 |
| 20260506042352 | 11 | 158 | 1.6 | 1.6 | 0.00 | 0.00 | 0.00 | 60 | 1004.7 |
| 20260506035321 | 11 | 158 | 1.6 | 1.6 | 0.00 | 0.00 | 0.00 | 56 | 1004.7 |
| 20260506031321 | 11 | 180 | 3.2 | 3.2 | 0.00 | 0.00 | 0.00 | 54 | 1004.5 |
| 20260506023321 | 12 | 158 | 4.8 | 4.8 | 0.00 | 0.00 | 0.00 | 51 | 1004.5 |
| 20260506015321 | 12 | 180 | 0.0 | 0.0 | 0.00 | 0.00 | 0.00 | 48 | 1004.2 |
| 20260506011351 | 12 | 180 | 3.2 | 3.2 | 0.00 | 0.00 | 0.00 | 46 | 1004.0 |
| 20260506004321 | 12 | 112 | 1.6 | 1.6 | 0.00 | 0.00 | 0.00 | 46 | 1004.0 |
| 20260506000353 | 12 | 202 | 4.8 | 4.8 | 0.00 | 0.00 | 0.00 | 45 | 1003.9 |
| 20260505233321 | 12 | 180 | 1.6 | 1.6 | 0.00 | 0.00 | 0.00 | 43 | 1004.2 |
| 20260505225351 | 12 | 158 | 6.4 | 6.4 | 0.00 | 0.00 | 0.00 | 44 | 1004.5 |
| 20260505222321 | 12 | 68 | 1.6 | 1.6 | 0.00 | 0.00 | 0.00 | 44 | 1004.6 |
| 20260505214321 | 13 | 112 | 1.6 | 1.6 | 0.00 | 0.00 | 0.00 | 42 | 1004.8 |
| 20260505210351 | 13 | 90 | 1.6 | 1.6 | 0.00 | 0.00 | 0.00 | 41 | 1004.7 |
| 20260505203322 | 13 | 158 | 0.0 | 0.0 | 0.00 | 0.00 | 0.00 | 40 | 1004.7 |
| 20260505195321 | 13 | 112 | 0.0 | 0.0 | 0.00 | 0.00 | 0.00 | 42 | 1004.3 |
| 20260505191321 | 14 | 68 | 0.0 | 0.0 | 0.00 | 0.00 | 0.00 | 43 | 1004.2 |
| 20260505183321 | 15 | 112 | 0.0 | 0.0 | 0.00 | 0.00 | 0.00 | 44 | 1004.0 |
| 20260505175351 | 15 | 158 | 0.0 | 0.0 | 0.00 | 0.00 | 0.00 | 50 | 1003.7 |
| 20260505172321 | 16 | 158 | 0.0 | 0.0 | 0.00 | 0.00 | 0.00 | 47 | 1003.6 |
| 20260505164321 | 18 | 158 | 0.0 | 0.0 | 0.00 | 0.00 | 0.00 | 47 | 1003.5 |
| 20260505160351 | 18 | 22 | 0.0 | 0.0 | 0.00 | 0.00 | 0.00 | 44 | 1003.6 |
| 20260505153321 | 18 | 22 | 0.0 | 0.0 | 0.00 | 0.00 | 0.00 | 43 | 1003.7 |
| 20260505123321 | 20 | 90 | 1.6 | 1.6 | 0.00 | 0.00 | 0.00 | 42 | 1005.3 |
| 20260505115351 | 19 | 68 | 1.6 | 1.6 | 0.00 | 0.00 | 0.00 | 43 | 1005.6 |
| 20260505112321 | 19 | 45 | 9.7 | 9.7 | 0.00 | 0.00 | 0.00 | 43 | 1005.7 |
| 20260505100321 | 18 | 22 | 4.8 | 4.8 | 0.00 | 0.00 | 0.00 | 44 | 1006.1 |